"read_dt","SO2 (ppb)","flags","PMT voltage (V)","lamp voltage (V)","lamp intensity (Hz)","internal temp (C)","react chamber temp (C)","sample flow (l/min)","pres (mmHg)","SO2 bkg (ppb)","SO2 coefficient"
2015-08-30 00:00:00,2044E-3,5C000400,-0724,0819,12365,028.9,045.5,0.255,750.4,01.17,0.508
2015-08-30 00:01:00,2229E-3,5C000400,-0724,0818,12291,028.9,045.5,0.255,750.5,01.17,0.508
2015-08-30 00:02:00,2090E-3,5C000400,-0724,0818,12334,028.9,045.5,0.255,750.3,01.17,0.508
2015-08-30 00:03:00,2252E-3,5C000400,-0724,0818,12390,028.9,045.5,0.254,750.4,01.17,0.508
2015-08-30 00:04:00,2190E-3,5C000400,-0724,0818,12307,028.9,045.5,0.255,750.4,01.17,0.508
2015-08-30 00:05:00,2031E-3,5C000400,-0724,0819,12395,028.9,045.5,0.254,750.4,01.17,0.508
2015-08-30 00:06:00,2135E-3,5C000400,-0724,0819,12098,028.9,045.5,0.255,750.4,01.17,0.508
2015-08-30 00:07:00,2110E-3,5C000400,-0724,0818,12260,028.9,045.5,0.255,750.4,01.17,0.508
2015-08-30 00:08:00,2019E-3,5C000400,-0724,0818,12304,028.9,045.5,0.255,750.4,01.17,0.508
2015-08-30 00:09:00,2211E-3,5C000400,-0724,0819,12480,028.9,045.5,0.255,750.3,01.17,0.508
2015-08-30 00:10:00,2231E-3,5C000400,-0724,0819,12353,028.9,045.5,0.254,750.2,01.17,0.508
2015-08-30 00:11:00,2135E-3,5C000400,-0724,0818,12262,028.9,045.5,0.255,750.2,01.17,0.508
2015-08-30 00:12:00,2176E-3,5C000400,-0724,0818,12379,028.9,045.5,0.255,750.2,01.17,0.508
2015-08-30 00:13:00,2233E-3,5C000400,-0724,0819,12311,028.9,045.5,0.255,750.1,01.17,0.508
2015-08-30 00:14:00,2238E-3,5C000400,-0724,0819,12282,028.9,045.5,0.255,750.3,01.17,0.508
2015-08-30 00:15:00,2202E-3,5C000400,-0724,0819,12124,028.8,045.5,0.254,750.1,01.17,0.508
2015-08-30 00:16:00,2219E-3,5C000400,-0724,0818,12389,028.8,045.5,0.255,750.2,01.17,0.508
2015-08-30 00:17:00,2019E-3,5C000400,-0724,0820,12124,028.8,045.5,0.255,750.2,01.17,0.508
2015-08-30 00:18:00,2185E-3,5C000400,-0724,0819,12337,028.8,045.5,0.255,750.0,01.17,0.508
2015-08-30 00:19:00,2178E-3,5C000400,-0724,0819,12192,028.8,045.5,0.255,750.0,01.17,0.508
2015-08-30 00:20:00,2193E-3,5C000400,-0724,0819,12333,028.9,045.5,0.254,750.3,01.17,0.508
2015-08-30 00:21:00,2226E-3,5C000400,-0724,0819,12307,028.8,045.5,0.255,750.2,01.17,0.508
2015-08-30 00:22:00,2286E-3,5C000400,-0724,0819,12215,028.8,045.5,0.255,750.2,01.17,0.508
2015-08-30 00:23:00,2042E-3,5C000400,-0724,0819,12354,028.8,045.5,0.255,750.2,01.17,0.508
2015-08-30 00:24:00,2310E-3,5C000400,-0724,0819,12455,028.8,045.5,0.255,750.2,01.17,0.508
2015-08-30 00:25:00,2222E-3,5C000400,-0724,0819,12464,028.9,045.5,0.255,750.1,01.17,0.508
2015-08-30 00:26:00,2031E-3,5C000400,-0724,0819,12271,028.8,045.5,0.255,750.2,01.17,0.508
2015-08-30 00:27:00,2236E-3,5C000400,-0724,0819,12325,028.8,045.5,0.255,750.3,01.17,0.508
2015-08-30 00:28:00,2183E-3,5C000400,-0724,0818,12208,028.8,045.5,0.255,750.3,01.17,0.508
2015-08-30 00:29:00,2218E-3,5C000400,-0724,0818,12198,028.8,045.5,0.255,750.2,01.17,0.508
2015-08-30 00:30:00,2158E-3,5C000400,-0724,0820,12490,028.8,045.5,0.255,750.4,01.17,0.508
2015-08-30 00:31:00,2216E-3,5C000400,-0724,0818,12184,028.8,045.5,0.255,750.4,01.17,0.508
2015-08-30 00:32:00,2169E-3,5C000400,-0724,0819,12301,028.8,045.5,0.255,750.3,01.17,0.508
2015-08-30 00:33:00,2099E-3,5C000400,-0724,0819,12260,028.8,045.5,0.255,750.4,01.17,0.508
2015-08-30 00:34:00,2220E-3,5C000400,-0724,0820,12493,028.8,045.5,0.255,750.4,01.17,0.508
2015-08-30 00:35:00,2107E-3,5C000400,-0724,0820,12357,028.8,045.5,0.254,750.4,01.17,0.508
2015-08-30 00:36:00,2137E-3,5C000400,-0724,0819,12236,028.8,045.5,0.255,750.4,01.17,0.508
2015-08-30 00:37:00,2232E-3,5C000400,-0724,0820,12291,028.8,045.5,0.255,750.5,01.17,0.508
2015-08-30 00:38:00,2125E-3,5C000400,-0724,0819,12418,028.8,045.5,0.255,750.5,01.17,0.508
2015-08-30 00:39:00,2289E-3,5C000400,-0724,0818,12269,028.8,045.5,0.255,750.6,01.17,0.508
2015-08-30 00:40:00,2175E-3,5C000400,-0724,0820,12320,028.8,045.5,0.255,750.6,01.17,0.508
2015-08-30 00:41:00,2249E-3,5C000400,-0724,0819,12174,028.8,045.5,0.255,750.5,01.17,0.508
2015-08-30 00:42:00,2181E-3,5C000400,-0724,0820,12308,028.8,045.5,0.255,750.6,01.17,0.508
2015-08-30 00:43:00,2209E-3,5C000400,-0724,0819,12356,028.8,045.5,0.255,750.6,01.17,0.508
2015-08-30 00:44:00,2286E-3,5C000400,-0724,0819,12325,028.8,045.5,0.254,750.7,01.17,0.508
2015-08-30 00:45:00,2075E-3,5C000400,-0724,0819,12200,028.8,045.5,0.255,750.6,01.17,0.508
2015-08-30 00:46:00,2141E-3,5C000400,-0724,0818,12327,028.7,045.5,0.255,750.6,01.17,0.508
2015-08-30 00:47:00,2144E-3,5C000400,-0724,0818,12152,028.8,045.5,0.255,750.6,01.17,0.508
2015-08-30 00:48:00,2148E-3,5C000400,-0724,0819,12217,028.8,045.5,0.255,750.6,01.17,0.508
2015-08-30 00:49:00,2203E-3,5C000400,-0724,0819,12180,028.7,045.5,0.255,750.7,01.17,0.508
2015-08-30 00:50:00,2194E-3,5C000400,-0724,0819,12082,028.8,045.5,0.255,750.7,01.17,0.508
2015-08-30 00:51:00,2191E-3,5C000400,-0724,0819,12446,028.8,045.5,0.255,750.8,01.17,0.508
2015-08-30 00:52:00,2159E-3,5C000400,-0724,0819,12246,028.8,045.5,0.255,750.8,01.17,0.508
2015-08-30 00:53:00,2243E-3,5C000400,-0724,0817,12204,028.7,045.5,0.255,750.7,01.17,0.508
2015-08-30 00:54:00,2138E-3,5C000400,-0724,0818,12401,028.8,045.5,0.255,750.8,01.17,0.508
2015-08-30 00:55:00,2261E-3,5C000400,-0724,0818,12276,028.8,045.5,0.255,750.9,01.17,0.508
2015-08-30 00:56:00,2124E-3,5C000400,-0724,0819,12398,028.8,045.5,0.255,750.8,01.17,0.508
2015-08-30 00:57:00,2126E-3,5C000400,-0724,0819,12391,028.7,045.5,0.255,750.9,01.17,0.508
2015-08-30 00:58:00,2287E-3,5C000400,-0724,0819,12351,028.8,045.5,0.255,750.9,01.17,0.508
2015-08-30 00:59:00,2202E-3,5C000400,-0724,0819,12286,028.8,045.5,0.255,750.8,01.17,0.508
2015-08-30 01:00:00,2167E-3,5C000400,-0724,0817,12122,028.7,045.5,0.255,750.9,01.17,0.508
2015-08-30 01:01:00,2128E-3,5C000400,-0724,0818,12237,028.7,045.5,0.255,750.9,01.17,0.508
2015-08-30 01:02:00,2413E-3,5C000400,-0724,0818,12356,028.8,045.5,0.255,750.9,01.17,0.508
2015-08-30 01:03:00,2111E-3,5C000400,-0724,0818,12261,028.8,045.5,0.255,751.0,01.17,0.508
2015-08-30 01:04:00,2104E-3,5C000400,-0724,0819,12483,028.8,045.5,0.255,750.8,01.17,0.508
2015-08-30 01:05:00,2266E-3,5C000400,-0724,0819,12381,028.7,045.5,0.255,750.8,01.17,0.508
2015-08-30 01:06:00,2222E-3,5C000400,-0724,0819,12334,028.8,045.5,0.255,751.0,01.17,0.508
2015-08-30 01:07:00,2149E-3,5C000400,-0724,0819,12252,028.7,045.5,0.255,751.0,01.17,0.508
2015-08-30 01:08:00,2153E-3,5C000400,-0724,0819,12159,028.7,045.5,0.255,751.0,01.17,0.508
2015-08-30 01:09:00,2243E-3,5C000400,-0724,0820,12164,028.7,045.5,0.255,751.0,01.17,0.508
2015-08-30 01:10:00,2155E-3,5C000400,-0724,0820,12397,028.8,045.5,0.255,751.1,01.17,0.508
2015-08-30 01:11:00,2119E-3,5C000400,-0724,0819,12456,028.7,045.5,0.255,751.1,01.17,0.508
2015-08-30 01:12:00,2159E-3,5C000400,-0724,0819,12187,028.7,045.5,0.255,751.1,01.17,0.508
2015-08-30 01:13:00,2106E-3,5C000400,-0724,0819,12330,028.7,045.5,0.255,751.1,01.17,0.508
2015-08-30 01:14:00,2302E-3,5C000400,-0724,0819,12251,028.8,045.5,0.255,751.0,01.17,0.508
2015-08-30 01:15:00,2143E-3,5C000400,-0724,0820,12276,028.8,045.5,0.255,751.0,01.17,0.508
2015-08-30 01:16:00,2179E-3,5C000400,-0724,0818,12243,028.8,045.5,0.255,751.1,01.17,0.508
2015-08-30 01:17:00,2142E-3,5C000400,-0724,0819,12206,028.8,045.5,0.255,751.1,01.17,0.508
2015-08-30 01:18:00,2217E-3,5C000400,-0724,0819,12297,028.7,045.5,0.255,751.0,01.17,0.508
2015-08-30 01:19:00,2172E-3,5C000400,-0724,0819,12166,028.8,045.5,0.255,751.0,01.17,0.508
2015-08-30 01:20:00,2199E-3,5C000400,-0724,0819,12341,028.8,045.5,0.255,751.0,01.17,0.508
2015-08-30 01:21:00,2141E-3,5C000400,-0724,0820,12283,028.7,045.5,0.255,751.0,01.17,0.508
2015-08-30 01:22:00,2149E-3,5C000400,-0724,0819,12200,028.8,045.5,0.255,751.0,01.17,0.508
2015-08-30 01:23:00,2228E-3,5C000400,-0724,0818,12194,028.8,045.5,0.255,750.9,01.17,0.508
2015-08-30 01:24:00,2107E-3,5C000400,-0724,0820,12190,028.8,045.5,0.255,751.0,01.17,0.508
2015-08-30 01:25:00,2084E-3,5C000400,-0724,0820,12275,028.8,045.5,0.255,750.9,01.17,0.508
2015-08-30 01:26:00,2236E-3,5C000400,-0724,0819,12270,028.7,045.5,0.255,750.9,01.17,0.508
2015-08-30 01:27:00,2145E-3,5C000400,-0724,0819,12208,028.8,045.5,0.255,750.9,01.17,0.508
2015-08-30 01:28:00,2142E-3,5C000400,-0724,0820,12389,028.8,045.5,0.255,750.9,01.17,0.508
2015-08-30 01:29:00,2211E-3,5C000400,-0724,0819,12192,028.7,045.5,0.255,750.9,01.17,0.508
2015-08-30 01:30:00,2068E-3,5C000400,-0724,0820,12321,028.8,045.5,0.255,751.0,01.17,0.508
2015-08-30 01:31:00,2051E-3,5C000400,-0724,0819,12333,028.8,045.5,0.255,750.9,01.17,0.508
2015-08-30 01:32:00,2241E-3,5C000400,-0724,0819,12481,028.8,045.5,0.255,750.9,01.17,0.508
2015-08-30 01:33:00,2108E-3,5C000400,-0724,0819,12304,028.8,045.5,0.255,751.0,01.17,0.508
2015-08-30 01:34:00,2205E-3,5C000400,-0724,0819,12218,028.8,045.5,0.255,751.0,01.17,0.508
2015-08-30 01:35:00,2209E-3,5C000400,-0724,0819,12241,028.8,045.5,0.255,751.0,01.17,0.508
2015-08-30 01:36:00,2261E-3,5C000400,-0724,0819,12291,028.7,045.5,0.255,751.0,01.17,0.508
2015-08-30 01:37:00,2135E-3,5C000400,-0724,0820,12262,028.8,045.5,0.255,750.9,01.17,0.508
2015-08-30 01:38:00,2198E-3,5C000400,-0724,0819,12242,028.8,045.5,0.255,750.8,01.17,0.508
2015-08-30 01:39:00,2096E-3,5C000400,-0724,0821,12318,028.8,045.5,0.255,751.0,01.17,0.508
2015-08-30 01:40:00,2257E-3,5C000400,-0724,0819,12262,028.8,045.5,0.255,750.9,01.17,0.508
2015-08-30 01:41:00,2181E-3,5C000400,-0724,0819,12341,028.7,045.5,0.255,751.0,01.17,0.508
2015-08-30 01:42:00,2171E-3,5C000400,-0724,0820,12126,028.8,045.5,0.255,751.0,01.17,0.508
2015-08-30 01:43:00,2280E-3,5C000400,-0724,0819,12225,028.8,045.5,0.255,750.9,01.17,0.508
2015-08-30 01:44:00,2225E-3,5C000400,-0724,0819,12350,028.8,045.5,0.255,751.1,01.17,0.508
2015-08-30 01:45:00,2057E-3,5C000400,-0724,0820,12266,028.7,045.5,0.255,751.0,01.17,0.508
2015-08-30 01:46:00,2175E-3,5C000400,-0724,0819,12204,028.7,045.5,0.255,751.0,01.17,0.508
2015-08-30 01:47:00,2143E-3,5C000400,-0724,0821,12352,028.8,045.5,0.255,751.1,01.17,0.508
2015-08-30 01:48:00,2143E-3,5C000400,-0724,0820,12349,028.7,045.5,0.255,751.2,01.17,0.508
2015-08-30 01:49:00,2051E-3,5C000400,-0724,0820,12219,028.8,045.5,0.255,751.2,01.17,0.508
2015-08-30 01:50:00,2012E-3,5C000400,-0724,0819,12352,028.8,045.5,0.255,751.1,01.17,0.508
2015-08-30 01:51:00,2051E-3,5C000400,-0724,0820,12205,028.7,045.5,0.255,751.1,01.17,0.508
2015-08-30 01:52:00,2067E-3,5C000400,-0724,0819,12319,028.7,045.5,0.255,751.2,01.17,0.508
2015-08-30 01:53:00,2231E-3,5C000400,-0724,0820,12280,028.8,045.5,0.255,751.2,01.17,0.508
2015-08-30 01:54:00,2133E-3,5C000400,-0724,0820,12329,028.7,045.5,0.255,751.1,01.17,0.508
2015-08-30 01:55:00,2172E-3,5C000400,-0724,0819,12195,028.7,045.5,0.255,751.2,01.17,0.508
2015-08-30 01:56:00,2301E-3,5C000400,-0724,0820,12345,028.8,045.5,0.255,751.2,01.17,0.508
2015-08-30 01:57:00,2162E-3,5C000400,-0724,0819,12206,028.7,045.5,0.255,751.3,01.17,0.508
2015-08-30 01:58:00,2145E-3,5C000400,-0724,0820,12336,028.7,045.5,0.255,751.2,01.17,0.508
2015-08-30 01:59:00,2107E-3,5C000400,-0724,0819,12380,028.7,045.5,0.255,751.2,01.17,0.508
2015-08-30 02:00:00,2118E-3,5C000400,-0724,0820,12144,028.7,045.5,0.255,751.2,01.17,0.508
2015-08-30 02:01:00,2109E-3,5C000400,-0724,0819,12311,028.7,045.5,0.255,751.2,01.17,0.508
2015-08-30 02:02:00,2115E-3,5C000400,-0724,0820,12360,028.7,045.5,0.255,751.1,01.17,0.508
2015-08-30 02:03:00,2097E-3,5C000400,-0724,0820,12031,028.8,045.5,0.255,751.2,01.17,0.508
2015-08-30 02:04:00,2180E-3,5C000400,-0724,0820,12236,028.8,045.5,0.255,751.1,01.17,0.508
2015-08-30 02:05:00,2070E-3,5C000400,-0724,0819,12298,028.8,045.5,0.255,751.1,01.17,0.508
2015-08-30 02:06:00,2205E-3,5C000400,-0724,0820,12356,028.7,045.5,0.255,751.1,01.17,0.508
2015-08-30 02:07:00,2119E-3,5C000400,-0724,0820,12368,028.7,045.5,0.255,751.1,01.17,0.508
2015-08-30 02:08:00,2168E-3,5C000400,-0724,0820,12231,028.7,045.5,0.255,751.1,01.17,0.508
2015-08-30 02:09:00,2173E-3,5C000400,-0724,0819,12302,028.7,045.5,0.255,751.1,01.17,0.508
2015-08-30 02:10:00,2278E-3,5C000400,-0724,0819,12364,028.7,045.5,0.255,751.2,01.17,0.508
2015-08-30 02:11:00,2142E-3,5C000400,-0724,0820,12314,028.7,045.5,0.255,751.1,01.17,0.508
2015-08-30 02:12:00,2037E-3,5C000400,-0724,0819,12274,028.7,045.5,0.255,751.2,01.17,0.508
2015-08-30 02:13:00,2153E-3,5C000400,-0724,0819,12330,028.7,045.5,0.255,751.2,01.17,0.508
2015-08-30 02:14:00,2140E-3,5C000400,-0724,0819,12308,028.7,045.5,0.255,751.2,01.17,0.508
2015-08-30 02:15:00,1930E-3,5C000400,-0724,0819,12324,028.7,045.5,0.255,751.2,01.17,0.508
2015-08-30 02:16:00,2126E-3,5C000400,-0724,0819,12423,028.7,045.5,0.255,751.2,01.17,0.508
2015-08-30 02:17:00,2257E-3,5C000400,-0724,0819,12351,028.7,045.5,0.255,751.2,01.17,0.508
2015-08-30 02:18:00,2102E-3,5C000400,-0724,0819,12194,028.7,045.5,0.255,751.3,01.17,0.508
2015-08-30 02:19:00,2122E-3,5C000400,-0724,0819,12203,028.7,045.5,0.255,751.2,01.17,0.508
2015-08-30 02:20:00,2158E-3,5C000400,-0724,0819,12226,028.7,045.5,0.255,751.3,01.17,0.508
2015-08-30 02:21:00,2227E-3,5C000400,-0724,0820,12305,028.7,045.5,0.255,751.3,01.17,0.508
2015-08-30 02:22:00,2270E-3,5C000400,-0724,0819,12202,028.7,045.5,0.255,751.3,01.17,0.508
2015-08-30 02:23:00,2126E-3,5C000400,-0724,0819,12234,028.7,045.5,0.256,751.2,01.17,0.508
2015-08-30 02:24:00,2192E-3,5C000400,-0724,0818,12408,028.8,045.5,0.255,751.2,01.17,0.508
2015-08-30 02:25:00,2113E-3,5C000400,-0724,0819,12382,028.7,045.5,0.256,751.2,01.17,0.508
2015-08-30 02:26:00,2187E-3,5C000400,-0724,0819,12359,028.7,045.5,0.255,751.1,01.17,0.508
2015-08-30 02:27:00,2109E-3,5C000400,-0724,0820,12275,028.7,045.5,0.255,751.2,01.17,0.508
2015-08-30 02:28:00,2159E-3,5C000400,-0724,0820,12229,028.7,045.5,0.255,751.2,01.17,0.508
2015-08-30 02:29:00,2122E-3,5C000400,-0724,0820,12283,028.7,045.5,0.255,751.3,01.17,0.508
2015-08-30 02:30:00,2251E-3,5C000400,-0724,0820,12276,028.7,045.5,0.255,751.3,01.17,0.508
2015-08-30 02:31:00,2114E-3,5C000400,-0724,0820,12403,028.7,045.5,0.255,751.3,01.17,0.508
2015-08-30 02:32:00,2199E-3,5C000400,-0724,0819,12339,028.7,045.5,0.255,751.3,01.17,0.508
2015-08-30 02:33:00,2190E-3,5C000400,-0724,0820,12252,028.7,045.5,0.255,751.2,01.17,0.508
2015-08-30 02:34:00,2100E-3,5C000400,-0724,0819,12342,028.8,045.5,0.255,751.3,01.17,0.508
2015-08-30 02:35:00,2178E-3,5C000400,-0724,0819,12072,028.7,045.5,0.255,751.3,01.17,0.508
2015-08-30 02:36:00,2187E-3,5C000400,-0724,0820,12217,028.7,045.5,0.255,751.3,01.17,0.508
2015-08-30 02:37:00,2110E-3,5C000400,-0724,0820,12271,028.7,045.5,0.255,751.2,01.17,0.508
2015-08-30 02:38:00,2039E-3,5C000400,-0724,0820,12278,028.7,045.5,0.255,751.3,01.17,0.508
2015-08-30 02:39:00,2077E-3,5C000400,-0724,0820,12439,028.7,045.5,0.255,751.3,01.17,0.508
2015-08-30 02:40:00,2118E-3,5C000400,-0724,0820,12196,028.7,045.5,0.255,751.3,01.17,0.508
2015-08-30 02:41:00,2086E-3,5C000400,-0724,0819,12327,028.7,045.5,0.255,751.3,01.17,0.508
2015-08-30 02:42:00,2080E-3,5C000400,-0724,0820,12308,028.7,045.5,0.255,751.3,01.17,0.508
2015-08-30 02:43:00,2138E-3,5C000400,-0724,0819,12228,028.7,045.5,0.255,751.3,01.17,0.508
2015-08-30 02:44:00,2289E-3,5C000400,-0724,0820,12205,028.7,045.5,0.255,751.3,01.17,0.508
2015-08-30 02:45:00,2171E-3,5C000400,-0724,0820,12268,028.7,045.5,0.255,751.3,01.17,0.508
2015-08-30 02:46:00,2102E-3,5C000400,-0724,0820,12305,028.7,045.5,0.255,751.3,01.17,0.508
2015-08-30 02:47:00,2117E-3,5C000400,-0724,0819,12323,028.7,045.5,0.255,751.3,01.17,0.508
2015-08-30 02:48:00,2033E-3,5C000400,-0724,0819,12180,028.7,045.5,0.255,751.3,01.17,0.508
2015-08-30 02:49:00,2137E-3,5C000400,-0724,0819,12148,028.7,045.5,0.255,751.3,01.17,0.508
2015-08-30 02:50:00,1999E-3,5C000400,-0724,0820,12213,028.7,045.5,0.255,751.3,01.17,0.508
2015-08-30 02:51:00,2041E-3,5C000400,-0724,0819,12247,028.7,045.5,0.255,751.4,01.17,0.508
2015-08-30 02:52:00,2093E-3,5C000400,-0724,0820,12415,028.7,045.5,0.255,751.3,01.17,0.508
2015-08-30 02:53:00,2198E-3,5C000400,-0724,0818,12010,028.7,045.5,0.255,751.3,01.17,0.508
2015-08-30 02:54:00,2096E-3,5C000400,-0724,0819,12287,028.7,045.5,0.255,751.3,01.17,0.508
2015-08-30 02:55:00,2063E-3,5C000400,-0724,0819,12417,028.7,045.5,0.255,751.3,01.17,0.508
2015-08-30 02:56:00,2125E-3,5C000400,-0724,0819,12242,028.7,045.5,0.255,751.3,01.17,0.508
2015-08-30 02:57:00,2180E-3,5C000400,-0724,0819,12368,028.7,045.5,0.255,751.3,01.17,0.508
2015-08-30 02:58:00,2225E-3,5C000400,-0724,0818,12205,028.7,045.5,0.255,751.3,01.17,0.508
2015-08-30 02:59:00,2038E-3,5C000400,-0724,0818,12327,028.7,045.5,0.255,751.3,01.17,0.508
2015-08-30 03:00:00,2259E-3,5C000400,-0724,0819,12326,028.8,045.5,0.255,751.3,01.17,0.508
2015-08-30 03:01:00,2183E-3,5C000400,-0724,0819,12306,028.7,045.5,0.255,751.3,01.17,0.508
2015-08-30 03:02:00,2129E-3,5C000400,-0724,0819,12262,028.7,045.5,0.255,751.3,01.17,0.508
2015-08-30 03:03:00,2230E-3,5C000400,-0724,0819,12276,028.7,045.5,0.255,751.3,01.17,0.508
2015-08-30 03:04:00,2153E-3,5C000400,-0724,0819,12360,028.7,045.5,0.255,751.3,01.17,0.508
2015-08-30 03:05:00,2202E-3,5C000400,-0724,0820,12333,028.7,045.5,0.255,751.3,01.17,0.508
2015-08-30 03:06:00,2150E-3,5C000400,-0724,0820,12282,028.7,045.5,0.255,751.3,01.17,0.508
2015-08-30 03:07:00,2137E-3,5C000400,-0724,0819,12310,028.7,045.5,0.255,751.3,01.17,0.508
2015-08-30 03:08:00,2103E-3,5C000400,-0724,0819,12127,028.7,045.5,0.255,751.3,01.17,0.508
2015-08-30 03:09:00,2129E-3,5C000400,-0724,0819,12282,028.7,045.5,0.255,751.2,01.17,0.508
2015-08-30 03:10:00,2120E-3,5C000400,-0724,0819,12332,028.7,045.5,0.255,751.2,01.17,0.508
2015-08-30 03:11:00,2000E-3,5C000400,-0724,0821,12308,028.7,045.5,0.255,751.2,01.17,0.508
2015-08-30 03:12:00,2069E-3,5C000400,-0724,0820,12289,028.7,045.5,0.255,751.2,01.17,0.508
2015-08-30 03:13:00,2095E-3,5C000400,-0724,0819,12252,028.7,045.5,0.255,751.2,01.17,0.508
2015-08-30 03:14:00,2094E-3,5C000400,-0724,0818,12443,028.7,045.5,0.255,751.2,01.17,0.508
2015-08-30 03:15:00,2092E-3,5C000400,-0724,0819,12292,028.7,045.5,0.255,751.2,01.17,0.508
2015-08-30 03:16:00,2134E-3,5C000400,-0724,0818,12279,028.7,045.5,0.255,751.2,01.17,0.508
2015-08-30 03:17:00,2119E-3,5C000400,-0724,0819,12402,028.7,045.5,0.255,751.2,01.17,0.508
2015-08-30 03:18:00,2118E-3,5C000400,-0724,0818,12293,028.7,045.5,0.255,751.2,01.17,0.508
2015-08-30 03:19:00,2251E-3,5C000400,-0724,0818,12289,028.7,045.5,0.255,751.1,01.17,0.508
2015-08-30 03:20:00,2245E-3,5C000400,-0724,0819,12374,028.7,045.5,0.255,751.2,01.17,0.508
2015-08-30 03:21:00,2288E-3,5C000400,-0724,0820,12258,028.7,045.5,0.255,751.1,01.17,0.508
2015-08-30 03:22:00,2285E-3,5C000400,-0724,0819,12275,028.7,045.5,0.255,751.1,01.17,0.508
2015-08-30 03:23:00,2132E-3,5C000400,-0724,0819,12221,028.7,045.5,0.256,751.1,01.17,0.508
2015-08-30 03:24:00,2072E-3,5C000400,-0724,0820,12333,028.7,045.5,0.255,751.0,01.17,0.508
2015-08-30 03:25:00,2263E-3,5C000400,-0724,0819,12100,028.7,045.5,0.255,751.1,01.17,0.508
2015-08-30 03:26:00,2219E-3,5C000400,-0724,0818,12266,028.7,045.5,0.255,751.1,01.17,0.508
2015-08-30 03:27:00,2255E-3,5C000400,-0724,0819,12273,028.7,045.5,0.255,751.0,01.17,0.508
2015-08-30 03:28:00,2204E-3,5C000400,-0724,0820,12428,028.7,045.5,0.255,751.1,01.17,0.508
2015-08-30 03:29:00,2104E-3,5C000400,-0724,0819,12293,028.7,045.5,0.255,751.2,01.17,0.508
2015-08-30 03:30:00,2123E-3,5C000400,-0724,0818,12275,028.6,045.5,0.255,751.1,01.17,0.508
2015-08-30 03:31:00,2244E-3,5C000400,-0724,0819,12291,028.7,045.5,0.255,751.2,01.17,0.508
2015-08-30 03:32:00,2129E-3,5C000400,-0724,0819,12393,028.7,045.5,0.255,751.1,01.17,0.508
2015-08-30 03:33:00,2136E-3,5C000400,-0724,0819,12265,028.7,045.5,0.255,751.2,01.17,0.508
2015-08-30 03:34:00,2296E-3,5C000400,-0724,0820,12333,028.7,045.5,0.255,751.2,01.17,0.508
2015-08-30 03:35:00,2171E-3,5C000400,-0724,0820,12339,028.7,045.5,0.255,751.1,01.17,0.508
2015-08-30 03:36:00,2083E-3,5C000400,-0724,0818,12274,028.7,045.5,0.255,751.2,01.17,0.508
2015-08-30 03:37:00,2033E-3,5C000400,-0724,0819,12264,028.7,045.5,0.255,751.2,01.17,0.508
2015-08-30 03:38:00,1970E-3,5C000400,-0724,0818,12273,028.7,045.5,0.255,751.2,01.17,0.508
2015-08-30 03:39:00,2190E-3,5C000400,-0724,0820,12413,028.7,045.5,0.255,751.1,01.17,0.508
2015-08-30 03:40:00,2141E-3,5C000400,-0724,0820,12306,028.7,045.5,0.255,751.2,01.17,0.508
2015-08-30 03:41:00,2028E-3,5C000400,-0724,0819,12334,028.7,045.5,0.255,751.2,01.17,0.508
2015-08-30 03:42:00,2105E-3,5C000400,-0724,0819,12298,028.7,045.5,0.255,751.1,01.17,0.508
2015-08-30 03:43:00,2144E-3,5C000400,-0724,0819,12266,028.7,045.5,0.255,751.2,01.17,0.508
2015-08-30 03:44:00,2142E-3,5C000400,-0724,0819,12288,028.7,045.5,0.255,751.2,01.17,0.508
2015-08-30 03:45:00,2207E-3,5C000400,-0724,0819,12299,028.6,045.5,0.255,751.3,01.17,0.508
2015-08-30 03:46:00,2175E-3,5C000400,-0724,0819,12284,028.6,045.5,0.255,751.2,01.17,0.508
2015-08-30 03:47:00,2030E-3,5C000400,-0724,0819,12264,028.6,045.5,0.255,751.2,01.17,0.508
2015-08-30 03:48:00,2067E-3,5C000400,-0724,0819,12377,028.7,045.5,0.255,751.2,01.17,0.508
2015-08-30 03:49:00,2039E-3,5C000400,-0724,0819,12192,028.6,045.5,0.255,751.2,01.17,0.508
2015-08-30 03:50:00,2110E-3,5C000400,-0724,0820,12182,028.6,045.5,0.255,751.2,01.17,0.508
2015-08-30 03:51:00,2060E-3,5C000400,-0724,0819,12228,028.7,045.5,0.255,751.3,01.17,0.508
2015-08-30 03:52:00,2225E-3,5C000400,-0724,0819,12383,028.6,045.5,0.255,751.2,01.17,0.508
2015-08-30 03:53:00,2037E-3,5C000400,-0724,0819,12247,028.6,045.5,0.255,751.2,01.17,0.508
2015-08-30 03:54:00,2210E-3,5C000400,-0724,0820,12309,028.7,045.5,0.255,751.2,01.17,0.508
2015-08-30 03:55:00,2005E-3,5C000400,-0724,0819,12150,028.6,045.5,0.255,751.2,01.17,0.508
2015-08-30 03:56:00,2182E-3,5C000400,-0724,0819,12345,028.6,045.5,0.255,751.2,01.17,0.508
2015-08-30 03:57:00,2019E-3,5C000400,-0724,0819,12241,028.6,045.5,0.255,751.2,01.17,0.508
2015-08-30 03:58:00,2164E-3,5C000400,-0724,0818,12298,028.6,045.5,0.255,751.2,01.17,0.508
2015-08-30 03:59:00,2049E-3,5C000400,-0724,0819,12263,028.7,045.5,0.255,751.3,01.17,0.508
2015-08-30 04:00:00,2138E-3,5C000400,-0724,0818,12465,028.6,045.5,0.255,751.2,01.17,0.508
2015-08-30 04:01:00,2097E-3,5C000400,-0724,0818,12278,028.6,045.5,0.255,751.3,01.17,0.508
2015-08-30 04:02:00,2117E-3,5C000400,-0724,0820,12372,028.6,045.5,0.255,751.3,01.17,0.508
2015-08-30 04:03:00,2041E-3,5C000400,-0724,0819,12501,028.6,045.5,0.255,751.3,01.17,0.508
2015-08-30 04:04:00,2155E-3,5C000400,-0724,0819,12283,028.6,045.5,0.255,751.2,01.17,0.508
2015-08-30 04:05:00,2277E-3,5C000400,-0724,0818,12408,028.6,045.5,0.255,751.2,01.17,0.508
2015-08-30 04:06:00,2128E-3,5C000400,-0724,0820,12298,028.6,045.5,0.255,751.3,01.17,0.508
2015-08-30 04:07:00,2114E-3,5C000400,-0724,0820,12135,028.6,045.5,0.255,751.3,01.17,0.508
2015-08-30 04:08:00,2158E-3,5C000400,-0724,0819,12280,028.6,045.5,0.255,751.3,01.17,0.508
2015-08-30 04:09:00,2126E-3,5C000400,-0724,0820,12383,028.6,045.5,0.255,751.3,01.17,0.508
2015-08-30 04:10:00,2096E-3,5C000400,-0724,0819,12344,028.6,045.5,0.255,751.3,01.17,0.508
2015-08-30 04:11:00,2171E-3,5C000400,-0724,0819,12202,028.6,045.5,0.255,751.2,01.17,0.508
2015-08-30 04:12:00,2045E-3,5C000400,-0724,0819,12125,028.6,045.5,0.255,751.3,01.17,0.508
2015-08-30 04:13:00,2104E-3,5C000400,-0724,0819,12238,028.6,045.5,0.255,751.3,01.17,0.508
2015-08-30 04:14:00,2119E-3,5C000400,-0724,0819,12313,028.6,045.5,0.255,751.4,01.17,0.508
2015-08-30 04:15:00,2205E-3,5C000400,-0724,0819,12304,028.6,045.5,0.255,751.4,01.17,0.508
2015-08-30 04:16:00,2010E-3,5C000400,-0724,0818,12204,028.6,045.5,0.255,751.4,01.17,0.508
2015-08-30 04:17:00,2203E-3,5C000400,-0724,0819,12489,028.6,045.5,0.255,751.4,01.17,0.508
2015-08-30 04:18:00,2130E-3,5C000400,-0724,0819,12206,028.6,045.5,0.255,751.4,01.17,0.508
2015-08-30 04:19:00,2153E-3,5C000400,-0724,0820,12378,028.6,045.5,0.256,751.4,01.17,0.508
2015-08-30 04:20:00,2078E-3,5C000400,-0724,0820,12344,028.6,045.5,0.255,751.4,01.17,0.508